Regional Weather Roundup
Issued by NWS Kansas City/Pleasant Hill, MO

Home | Current Version | Previous Version | Graphics & Text | Print | Product List | Glossary Off
Versions: 1 2 3 4 5 6 7 8 9 10 11 12 13 14 15 16 17 18 19 20 21 22 23 24 25 26 27

000
ASUS43 KEAX 241910
RWREAX

WEATHER ROUNDUP FOR EASTERN KANSAS AND NORTHWEST MISSOURI
NATIONAL WEATHER SERVICE KANSAS CITY/PLEASANT HILL MO
200 PM CDT WED MAY 24 2017

KSZ040-057-103>105-MOZ028-029-037-043-242000-
...KANSAS CITY METROPOLITAN AREA...

CITY           SKY/WX    TMP DP  RH WIND       PRES   REMARKS
K.C. INTL      PTSUNNY   62  50  64 N13       29.69S
K.C. DOWNTOWN  CLOUDY    62  49  62 N8        29.68S
LEES SUMMIT    CLOUDY    61  51  70 N15       29.69S
OLATHE - IXD   PTSUNNY   62  49  62 N12G22    29.70F
OLATHE - OJC   PTSUNNY   63  51  65 NW13G21   29.69S
LAWRENCE       PTSUNNY   65  49  56 NW13G23   29.70S

$$

MOZ001>008-011>017-020>025-030>033-038>040-044>046-053-054-242000-
...NORTHERN AND CENTRAL MISSOURI...

CITY           SKY/WX    TMP DP  RH WIND       PRES   REMARKS
ST. JOSEPH     CLOUDY    62  50  64 N13       29.70S
WARRENSBURG    CLOUDY    59  52  77 NW7       29.67S
WHITEMAN AFB   PTSUNNY   61  53  75 NW8       29.65S
CLINTON        MOSUNNY   59  52  77 NW7       29.68S
SEDALIA        CLOUDY    63  52  67 N10       29.66S
WARSAW         NOT AVBL
CHILLICOTHE      N/A     57  53  86 VRB6      29.67R
KIRKSVILLE     CLOUDY    58  49  72 N15       29.65R

$$

MOZ041-047>049-056>058-063>065-088>090-097-242000-
...EASTERN AND SOUTHERN MISSOURI...

CITY           SKY/WX    TMP DP  RH WIND       PRES   REMARKS
ST. LOUIS INTL CLOUDY    67  49  52 N14       29.57F
SPIRIT OF STL  CLOUDY    62  48  60 NW10      29.58R
COLUMBIA       PTSUNNY   61  48  62 NW12      29.64S
JEFFERSON CITY CLOUDY    63  45  51 N9        29.63S
ROLLA          PTSUNNY   60  52  74 NW8       29.61F
OSAGE BEACH    CLOUDY    58  48  69 W6        29.65S
SPRINGFIELD    CLOUDY    58  49  72 NW9G20    29.68R
BRANSON        CLOUDY    59  45  58 NW15      29.69S
JOPLIN         CLOUDY    63  49  60 NW13      29.71F
WEST PLAINS    CLOUDY    60  46  59 NW13      29.65R

$$

IAZ060-094-KSZ022-034>040-054-083-096-NEZ052-066-093-242000-
...KANSAS...SOUTHEAST NEBRASKA AND IOWA...

CITY           SKY/WX    TMP DP  RH WIND       PRES   REMARKS
TOPEKA         PTSUNNY   66  49  54 NW13      29.70F
MANHATTAN      PTSUNNY   67  47  48 NW6       29.73F
EMPORIA        MOSUNNY   65  46  50 NW13      29.73F
CHANUTE        PTSUNNY   66  47  50 NW13G23   29.72F
WICHITA        PTSUNNY   62  44  51 VRB7      29.78F
OMAHA          MOSUNNY   64  44  48 N10       29.71F
LINCOLN        MOSUNNY   66  46  48 N9        29.73F
FALLS CITY     MOSUNNY   66  48  52 N12G17    29.69F
LAMONI         CLOUDY    61  52  72 N15G22    29.68R
DES MOINES     CLOUDY    59  49  69 N13       29.69S

$$





USA.gov is the U.S. government's official web portal to all federal, state and local government web resources and services.